Location: De Greiden
(52.9496°N, 5.9137°E)
Time: 23:50:31
(UTC+00:00)

Cosmos 1680 Rocket - Pass Details

Date: 24 January 2021
Orbit: 761 x 780 km, 74.1° (Epoch: 01 March)

Event Time Altitude Azimuth Distance (km) Brightness Sun altitude
Rises 17:31:49 0° 334° (NNW) 3,253 6.9 -12.6°
Reaches altitude 10° 17:34:13 10° 335° (NNW) 2,319 6.1 -13.0°
Maximum altitude 17:39:29 84° 65° (ENE) 777 3.4 -13.7°
Drops below altitude 10° 17:44:42 10° 153° (SSE) 2,293 5.8 -14.5°
Sets 17:47:04 0° 154° (SSE) 3,213 6.6 -14.9°
